TimeCDT,TemperatureF,Dew PointF,Humidity,Sea Level PressureIn,VisibilityMPH,Wind Direction,Wind SpeedMPH,Gust SpeedMPH,PrecipitationIn,Events,Conditions,WindDirDegrees,DateUTC
12:54 AM,62.1,54.0,75,30.14,10.0,Calm,Calm,-,N/A,,Clear,0,2012-05-12 05:54:00
1:54 AM,60.8,53.6,77,30.15,10.0,Calm,Calm,-,N/A,,Clear,0,2012-05-12 06:54:00
2:54 AM,60.1,54.0,80,30.14,10.0,ESE,3.5,-,N/A,,Clear,120,2012-05-12 07:54:00
3:54 AM,60.1,54.0,80,30.14,10.0,ESE,3.5,-,N/A,,Scattered Clouds,110,2012-05-12 08:54:00
4:54 AM,60.1,55.0,83,30.15,10.0,Calm,Calm,-,N/A,,Scattered Clouds,0,2012-05-12 09:54:00
5:54 AM,59.0,54.0,83,30.17,10.0,Calm,Calm,-,N/A,,Partly Cloudy,0,2012-05-12 10:54:00
6:54 AM,60.1,55.9,86,30.19,10.0,Calm,Calm,-,N/A,,Mostly Cloudy,0,2012-05-12 11:54:00
7:54 AM,61.0,55.0,81,30.20,10.0,Calm,Calm,-,N/A,,Clear,0,2012-05-12 12:54:00
8:54 AM,64.9,55.9,73,30.19,10.0,Calm,Calm,-,N/A,,Clear,0,2012-05-12 13:54:00
9:54 AM,70.0,55.0,59,30.18,10.0,Calm,Calm,-,N/A,,Clear,0,2012-05-12 14:54:00
10:54 AM,72.0,55.0,55,30.18,10.0,Calm,Calm,-,N/A,,Clear,0,2012-05-12 15:54:00
11:54 AM,73.0,55.0,53,30.19,10.0,NE,5.8,-,N/A,,Scattered Clouds,50,2012-05-12 16:54:00
12:54 PM,75.0,55.0,50,30.17,10.0,Variable,5.8,-,N/A,,Mostly Cloudy,0,2012-05-12 17:54:00
1:54 PM,75.0,57.0,53,30.17,10.0,North,12.7,20.7,N/A,,Partly Cloudy,10,2012-05-12 18:54:00
2:54 PM,75.9,55.9,50,30.16,10.0,North,11.5,-,N/A,,Partly Cloudy,10,2012-05-12 19:54:00
3:54 PM,75.0,54.0,48,30.14,10.0,NNE,12.7,-,N/A,,Clear,20,2012-05-12 20:54:00
4:54 PM,75.0,57.0,53,30.14,10.0,NNE,16.1,-,N/A,,Scattered Clouds,20,2012-05-12 21:54:00
5:54 PM,73.0,57.0,57,30.14,10.0,North,15.0,-,N/A,,Clear,360,2012-05-12 22:54:00
6:54 PM,71.1,57.0,61,30.15,10.0,NE,13.8,-,N/A,,Partly Cloudy,40,2012-05-12 23:54:00
7:54 PM,68.0,55.9,65,30.17,10.0,ENE,5.8,-,N/A,,Scattered Clouds,60,2012-05-13 00:54:00
8:54 PM,64.0,55.9,75,30.17,10.0,NNE,6.9,-,N/A,,Clear,20,2012-05-13 01:54:00
9:54 PM,62.1,55.9,80,30.19,10.0,North,8.1,-,N/A,,Clear,10,2012-05-13 02:54:00
10:54 PM,60.1,55.0,83,30.19,10.0,North,6.9,-,N/A,,Clear,10,2012-05-13 03:54:00
11:54 PM,59.0,54.0,83,30.18,10.0,North,6.9,-,N/A,,Clear,360,2012-05-13 04:54:00